Date String (YYYY-MM-DD hh:mm:ss) UTC,Instrument flags,Ambient pressure (hPa),Sample flow (lpm),Bypass flow (lpm),Sample temperature (°C),Ambient temperature (°C),ASC tube jacket temperature (°C),LED temperature (°C),Box temperature (°C),Sample RH (%),Span deviation,Mass concentration (μg/m³),Mass concentration (μg/m³),Mass concentration (μg/m³)
DateTimeUTC,F1_M11,P_M11,Q1_M11,Q2_M11,T1_M11,T2_M11,T3_M11,T4_M11,T5_M11,U1_M11,ZSPAN_M11,X0_M11,X2_M11,X1_M11
2021-12-23 00:00:00,,0820.5,4.99,0.00,28.1,27.2,00.0,37.1,29.8,04.6,0000.0,0002.26,0000.38,0000.27
2021-12-23 00:01:00,,0820.5,5.01,0.00,28.1,27.2,00.0,37.1,29.8,04.6,0000.0,0002.26,0000.38,0000.27
2021-12-23 00:02:00,,0820.4,5.00,0.00,28.1,27.2,00.0,37.1,29.8,04.5,0000.0,0002.28,0000.39,0000.27
2021-12-23 00:03:00,,0820.5,4.99,0.00,28.1,27.2,00.0,37.1,29.8,04.5,0000.0,0002.27,0000.39,0000.27
2021-12-23 00:04:00,,0820.6,5.01,0.00,28.1,27.2,00.0,37.1,29.9,04.6,0000.0,0002.22,0000.38,0000.27
2021-12-23 00:05:00,,0820.3,5.00,0.00,28.1,27.2,00.0,37.1,29.9,04.5,0000.0,0002.21,0000.38,0000.27
2021-12-23 00:06:00,,0820.1,5.01,0.00,28.1,27.2,00.0,37.1,29.8,04.9,0000.0,0002.19,0000.37,0000.28
2021-12-23 00:07:00,,0820.2,5.00,0.00,28.0,27.1,00.0,37.1,29.7,05.7,0000.0,0002.18,0000.36,0000.27
2021-12-23 00:08:00,,0820.1,5.00,0.00,28.0,27.0,00.0,37.1,29.6,05.4,0000.0,0002.22,0000.36,0000.27
2021-12-23 00:09:00,,0820.2,4.99,0.00,27.9,26.9,00.0,37.0,29.5,05.4,0000.0,0002.18,0000.34,0000.26
2021-12-23 00:10:00,,0820.4,5.01,0.00,27.8,26.8,00.0,37.0,29.4,05.6,0000.0,0001.90,0000.37,0000.26
2021-12-23 00:11:00,,0820.6,4.99,0.00,27.8,26.8,00.0,37.0,29.4,05.8,0000.0,0000.64,0000.36,0000.26
2021-12-23 00:12:00,,0820.3,5.02,0.00,27.8,26.7,00.0,36.9,29.3,05.8,0000.0,0000.63,0000.35,0000.25
2021-12-23 00:13:00,,0820.4,4.99,0.00,27.7,26.7,00.0,36.9,29.4,05.0,0000.0,0000.61,0000.33,0000.24
2021-12-23 00:14:00,,0820.6,5.01,0.00,27.7,26.7,00.0,36.9,29.4,04.9,0000.0,0000.59,0000.32,0000.24
2021-12-23 00:15:00,,0820.7,5.01,0.00,27.7,26.8,00.0,36.9,29.4,04.8,0000.0,0000.59,0000.32,0000.24
2021-12-23 00:16:00,,0820.5,4.99,0.00,27.7,26.8,00.0,36.9,29.4,04.7,0000.0,0000.61,0000.33,0000.25
2021-12-23 00:17:00,,0820.3,5.00,0.00,27.7,26.8,00.0,36.8,29.4,05.4,0000.0,0000.62,0000.34,0000.25
2021-12-23 00:18:00,,0820.2,5.00,0.00,27.7,26.8,00.0,36.8,29.3,05.6,0000.0,0000.63,0000.34,0000.25
2021-12-23 00:19:00,,0820.5,5.00,0.00,27.7,26.8,00.0,36.8,29.3,05.6,0000.0,0000.56,0000.32,0000.25
2021-12-23 00:20:00,,0820.6,5.01,0.00,27.7,26.8,00.0,36.8,29.4,05.2,0000.0,0000.52,0000.31,0000.25
2021-12-23 00:21:00,,0820.7,4.99,0.00,27.7,26.8,00.0,36.8,29.4,04.7,0000.0,0000.43,0000.29,0000.25
2021-12-23 00:22:00,,0820.7,4.99,0.00,27.7,26.8,00.0,36.8,29.4,04.7,0000.0,0000.45,0000.31,0000.26
2021-12-23 00:23:00,,0820.6,5.01,0.00,27.7,26.8,00.0,36.8,29.3,04.8,0000.0,0000.48,0000.33,0000.27
2021-12-23 00:24:00,,0820.6,4.98,0.00,27.6,26.8,00.0,36.7,29.3,04.8,0000.0,0000.47,0000.33,0000.27
2021-12-23 00:25:00,,0820.7,5.01,0.00,27.6,26.8,00.0,36.7,29.3,04.8,0000.0,0000.51,0000.35,0000.28
2021-12-23 00:26:00,,0820.7,4.99,0.00,27.6,26.8,00.0,36.7,29.3,05.0,0000.0,0000.52,0000.35,0000.28
2021-12-23 00:27:00,,0820.4,5.02,0.00,27.6,26.8,00.0,36.7,29.3,05.3,0000.0,0000.50,0000.34,0000.27
2021-12-23 00:28:00,,0820.2,4.99,0.00,27.6,26.8,00.0,36.7,29.3,05.5,0000.0,0000.50,0000.34,0000.26
2021-12-23 00:29:00,,0820.2,5.01,0.00,27.6,26.8,00.0,36.7,29.3,05.7,0000.0,0000.53,0000.35,0000.26
2021-12-23 00:30:00,,0820.4,5.02,0.00,27.6,26.8,00.0,36.7,29.3,05.7,0000.0,0000.66,0000.36,0000.26
2021-12-23 00:31:00,,0820.3,4.99,0.00,27.6,26.8,00.0,36.7,29.3,05.7,0000.0,0000.68,0000.37,0000.26
2021-12-23 00:32:00,,0820.5,5.01,0.00,27.6,26.7,00.0,36.7,29.3,05.7,0000.0,0000.65,0000.35,0000.25
2021-12-23 00:33:00,,0820.5,5.01,0.00,27.6,26.7,00.0,36.6,29.2,05.4,0000.0,0000.60,0000.33,0000.24
2021-12-23 00:34:00,,0820.4,4.99,0.00,27.5,26.7,00.0,36.6,29.2,05.2,0000.0,0000.59,0000.33,0000.24
2021-12-23 00:35:00,,0820.5,5.00,0.00,27.5,26.7,00.0,36.6,29.2,05.2,0000.0,0001.20,0000.37,0000.24
2021-12-23 00:36:00,,0820.6,4.99,0.00,27.5,26.7,00.0,36.6,29.2,05.4,0000.0,0001.69,0000.37,0000.23
2021-12-23 00:37:00,,0820.6,5.00,0.00,27.5,26.7,00.0,36.6,29.2,05.3,0000.0,0001.70,0000.37,0000.23
2021-12-23 00:38:00,,0820.6,5.01,0.00,27.5,26.7,00.0,36.6,29.3,05.3,0000.0,0001.79,0000.39,0000.24
2021-12-23 00:39:00,,0820.7,4.99,0.00,27.5,26.8,00.0,36.6,29.3,05.4,0000.0,0002.36,0000.39,0000.24
2021-12-23 00:40:00,,0820.8,5.00,0.00,27.5,26.8,00.0,36.6,29.3,05.4,0000.0,0002.42,0000.39,0000.24
2021-12-23 00:41:00,,0820.6,5.01,0.00,27.6,26.8,00.0,36.6,29.3,05.3,0000.0,0002.32,0000.39,0000.25
2021-12-23 00:42:00,,0820.5,4.99,0.00,27.6,26.8,00.0,36.6,29.4,05.2,0000.0,0002.28,0000.38,0000.25
2021-12-23 00:43:00,,0820.2,5.00,0.00,27.6,26.8,00.0,36.6,29.3,05.2,0000.0,0002.30,0000.39,0000.26
2021-12-23 00:44:00,,0820.5,4.99,0.00,27.6,26.8,00.0,36.6,29.3,05.5,0000.0,0002.33,0000.39,0000.26
2021-12-23 00:45:00,,0820.5,5.01,0.00,27.6,26.8,00.0,36.6,29.3,05.4,0000.0,0002.30,0000.38,0000.26
2021-12-23 00:46:00,,0820.4,4.99,0.00,27.6,26.8,00.0,36.6,29.3,05.2,0000.0,0001.82,0000.33,0000.25
2021-12-23 00:47:00,,0820.6,5.01,0.00,27.6,26.8,00.0,36.6,29.3,05.5,0000.0,0001.16,0000.31,0000.25
2021-12-23 00:48:00,,0820.6,5.01,0.00,27.6,26.8,00.0,36.6,29.3,05.4,0000.0,0001.18,0000.31,0000.24
2021-12-23 00:49:00,,0820.5,4.99,0.00,27.6,26.8,00.0,36.6,29.3,05.1,0000.0,0001.72,0000.31,0000.24
2021-12-23 00:50:00,,0820.5,5.00,0.00,27.6,26.8,00.0,36.6,29.3,05.0,0000.0,0001.93,0000.30,0000.25
2021-12-23 00:51:00,,0820.6,5.00,0.00,27.6,26.9,00.0,36.6,29.4,05.0,0000.0,0001.76,0000.29,0000.25
2021-12-23 00:52:00,,0820.6,5.00,0.00,27.7,26.9,00.0,36.6,29.4,04.9,0000.0,0001.73,0000.28,0000.25
2021-12-23 00:53:00,,0820.6,4.99,0.00,27.7,26.9,00.0,36.6,29.4,04.9,0000.0,0001.76,0000.29,0000.25
2021-12-23 00:54:00,,0820.6,5.01,0.00,27.7,26.9,00.0,36.6,29.5,04.9,0000.0,0001.82,0000.33,0000.25
2021-12-23 00:55:00,,0820.6,5.00,0.00,27.7,27.0,00.0,36.6,29.5,04.9,0000.0,0001.83,0000.34,0000.25
2021-12-23 00:56:00,,0820.6,5.00,0.00,27.7,27.0,00.0,36.6,29.5,04.9,0000.0,0001.85,0000.35,0000.26
2021-12-23 00:57:00,,0820.6,5.01,0.00,27.7,27.0,00.0,36.6,29.5,05.0,0000.0,0001.88,0000.37,0000.26
2021-12-23 00:58:00,,0820.6,4.99,0.00,27.8,27.0,00.0,36.6,29.5,05.0,0000.0,0001.96,0000.40,0000.26
2021-12-23 00:59:00,,0820.5,5.00,0.00,27.8,27.0,00.0,36.7,29.6,05.1,0000.0,0001.91,0000.39,0000.27
